CZ-6A R/B, 60397

Orbit data source: Space-Track

CZ-6A R/B, 60397 is space debris in LEO originally from a launch on Tue, 06 Aug 2024 UTC launched from the Taiyaun Space Center, China (TSC). Debris objects in space refer to the collection of defunct objects orbiting the Earth. Examples of debris include non-operational satellites, rocket bodies, and fragments generated from explosions, collisions, or faulty payload assembly.

Loading next visibility...
Identifier
60397, 2024-140U
Orbit
LEO
Country
Flag of CNCN / PRC
Related business
Manufacturer
SAST
Mission
Spacecraft
Bus & Motor
CZ-6A STAGE 2, YF-115
Mass
~6,000 kg wet, ~6,000 kg dry
Launch date (UTC)
2024-08-06 (2 years ago)
Launch vehicle
Unknown
Launch site
Taiyaun Space Center, China (TSC)
Object type
Payload
Rocket body
Debris
Shape & HBR
Unknown shape, 5.5 m
Radar Cross Section
Large (>1 m²)

Expand to show TLE details & history
Last TLE update: 13 hours ago

TLE from 13 hours ago
0 CZ-6A R/B
1 60397U 24140U   26171.32519868  .00000107  00000-0  43104-4 0  9999
2 60397  89.0010 274.2682 0041092 178.3176 181.8160 14.19885546 96635
Epoch: 2026-06-20T07:48Z
TLE epoch observation values (Epoch: 2026-06-20T07:48:17.165Z)
Latitude
-0.00006°
Longitude
-111.34476°
Altitude
858.387 km
Speed
7.408 km/s
True Right ascension
18h 17m 04s
True Declination
0° 00' 00"
Sunlit
Object was in full shadow at epoch
Visualization orbit readout
Latitude
Unknown
Longitude
Unknown
Altitude
Unknown
Speed
Unknown
Apparent Right ascension
Unknown
Apparent Declination
Unknown
Sunlit
N/A
Visualization observer readout
Local Sidereal Time
07:18:45
Azimuth
Unknown
Elevation
Unknown
Doppler factor
Unknown
Orbital elements
Apogee altitude
852.281 km
Perigee altitude
793.102 km
Semi-major axis
7,200.828 km
Eccentricity
0.00411
Inclination
89.001°
RAAN
274.2682°
Arg. of periapsis
178.3176°
True anomaly
181.80115°
Mean anomaly
181.816°
Eccentric anomaly
181.80857°
Mean motion
3.55197 °/min
Orbital period
101.35 mins
BSTAR
0.000043104
Loading maneuver chart data...
Computing Atmospheric mass density...
Loading historical data...
Loading historical data...
Loading historical data...
Loading historical data...
Loading historical data...
Loading historical data...
Loading historical data...

Documentation

Showing up to 5 results
|